Location: Asheville, NC
(35.6000°N, 82.5500°W)
Time: 09:35:37
(UTC-04:00)

Vanguard 1 Rocket - Pass Details

Date: 09 December 2017
Orbit: 652 x 4225 km, 34.3° (Epoch: 16 July)

Event Time Altitude Azimuth Distance (km) Brightness Sun altitude
Rises 14:51:02 0° 171° (S) 3,941 11.3 21.8°
Reaches altitude 10° 14:56:45 10° 135° (SE) 3,707 10.7 21.1°
Maximum altitude 14:58:49 11° 122° (ESE) 3,910 10.6 20.8°
Drops below altitude 10° 15:01:07 10° 110° (ESE) 4,274 10.7 20.5°
Sets 15:10:28 0° 80° (E) 6,416 11.3 19.3°
